South Lake Tahoe, CA

5:50 AM PDT on July 25, 2017 (GMT -0700)
Lake Tahoe

Weather History for KTVL - November, 2013

Change the Weather History Date:

Monday, November 25, 2013

  Actual Average Record
Temperature  
Mean Temperature 37 °F 33 °F  
Max Temperature 55 °F 47 °F 68 °F (1995)
Min Temperature 18 °F 20 °F -7 °F (2010)
Degree Days  
Heating Degree Days 28 32  
Month to date heating degree days 612 698  
Since 1 July heating degree days 1693 1930  
Cooling Degree Days 0 0  
Month to date cooling degree days 0 0  
Year to date cooling degree days 104 31  
Moisture  
Dew Point 19 °F    
Average Humidity 53    
Maximum Humidity 80    
Minimum Humidity 26    
Precipitation  
Precipitation 0.00 in - 1.64 in (1970)
Month to date precipitation 0.39  
Year to date precipitation 7.95  
Sea Level Pressure  
Sea Level Pressure 30.36 in    
Wind  
Wind Speed 3 mph (South)    
Max Wind Speed 9 mph    
Max Gust Speed 11 mph    
Visibility 10 miles    
Events      
T = Trace of Precipitation, MM = Missing Value Source: NWS Daily Summary

Daily Weather History Graph

Daily Weather History Graph

Search for Another Location

Airport or City:

Trip Planner

Search our weather history database for the weather conditions in past years. The results will help you decide how hot, cold, wet, or windy it might be!

Date:

Astronomy

Nov. 25, 2013 Rise Set
Actual Time 6:53 AM PST 4:40 PM PST
Civil Twilight 6:24 AM PST 5:09 PM PST
Nautical Twilight 5:51 AM PST 5:42 PM PST
Astronomical Twilight 5:20 AM PST 6:13 PM PST
Moon No Moon Rise 12:15 PM PST
Length of Visible Light 10h 44m
Length of Day
9h 46m
Waning Gibbous, 50% of the Moon is Illuminated
Nov 25
Waning Gibbous
Dec 2
New
Dec 9
First Quarter
Dec 17
Full
Dec 25
Last Quarter

Hourly Weather History & Observations

Time (PST) Temp. Windchill Dew Point Humidity Pressure Visibility Wind Dir Wind Speed Gust Speed Precip Events Conditions
12:53 AM 21.0 °F 16.2 °F 15.1 °F 78% 30.31 in 10.0 mi SSW 3.5 mph - N/A   Clear
1:53 AM 21.0 °F 16.2 °F 14.0 °F 74% 30.32 in 10.0 mi SSW 3.5 mph - N/A   Clear
2:53 AM 19.9 °F - 14.0 °F 78% 30.32 in 10.0 mi Calm Calm - N/A   Clear
3:53 AM 19.0 °F - 12.9 °F 77% 30.34 in 10.0 mi Calm Calm - N/A   Clear
4:53 AM 19.0 °F 13.9 °F 12.9 °F 77% 30.37 in 10.0 mi South 3.5 mph - N/A   Clear
5:53 AM 19.0 °F - 12.9 °F 77% 30.40 in 10.0 mi Calm Calm - N/A   Clear
6:53 AM 18.0 °F 12.7 °F 12.0 °F 78% 30.44 in 10.0 mi Variable 3.5 mph - N/A   Clear
7:53 AM 19.9 °F 14.9 °F 14.0 °F 78% 30.45 in 10.0 mi SSW 3.5 mph - N/A   Clear
8:53 AM 30.0 °F 25.2 °F 19.9 °F 66% 30.41 in 10.0 mi SSE 4.6 mph - N/A   Clear
9:53 AM 39.9 °F - 23.0 °F 51% 30.39 in 10.0 mi Calm Calm - N/A   Clear
10:53 AM 48.0 °F - 23.0 °F 37% 30.34 in 10.0 mi Variable 3.5 mph - N/A   Clear
11:53 AM 52.0 °F - 21.0 °F 30% 30.32 in 10.0 mi NE 8.1 mph - N/A   Clear
12:53 PM 52.0 °F - 17.1 °F 25% 30.31 in 10.0 mi NE 4.6 mph - N/A   Clear
1:53 PM 53.1 °F - 21.0 °F 29% 30.30 in 10.0 mi NE 5.8 mph - N/A   Clear
2:53 PM 54.0 °F - 21.0 °F 28% 30.30 in 10.0 mi North 4.6 mph - N/A   Clear
3:53 PM 44.1 °F - 21.9 °F 42% 30.33 in 10.0 mi Calm Calm - N/A   Clear
4:53 PM 39.0 °F - 23.0 °F 53% 30.36 in 10.0 mi Calm Calm - N/A   Clear
5:53 PM 35.1 °F 32.2 °F 21.9 °F 59% 30.40 in 10.0 mi SSW 3.5 mph - N/A   Clear
6:53 PM 32.0 °F - 21.9 °F 66% 30.43 in 10.0 mi Calm Calm - N/A   Clear
7:53 PM 30.0 °F 26.5 °F 21.0 °F 69% 30.43 in 10.0 mi South 3.5 mph - N/A   Clear
8:53 PM 28.0 °F - 21.0 °F 75% 30.40 in 10.0 mi Calm Calm - N/A   Clear
9:53 PM 28.9 °F 23.9 °F 21.0 °F 72% 30.36 in 10.0 mi South 4.6 mph - N/A   Clear
10:53 PM 28.0 °F - 19.9 °F 72% 30.34 in 10.0 mi Calm Calm - N/A   Clear
11:53 PM 27.0 °F 23.0 °F 19.9 °F 75% 30.32 in 10.0 mi South 3.5 mph - N/A   Clear